• In Hungary
  • List of Countries
  • For 7 days
  • Water Temperature
  • Satellite Maps
  • Weather Map
  • News
  • Weather Widgets
  • user-avatar
    Login

    Hourly Weather Kluczniki

    Today, 20 January, Saturday

    Time Temperature Precipitation Wind Pressure Humidity
    00:00 -1°C° 0 mm 1 mps 716 mmHg 86%
    01:00 -1°C° 0 mm 1 mps 716 mmHg 87%
    02:00 -2°C° 0 mm 1 mps 716 mmHg 87%
    03:00 -2°C° 0 mm 1 mps 716 mmHg 87%
    04:00 -2°C° 0 mm 1 mps 716 mmHg 87%
    05:00 -3°C° 0 mm 1 mps 716 mmHg 87%
    06:00 -3°C° 0 mm 1 mps 716 mmHg 87%
    07:00 -3°C° 0 mm 1 mps 716 mmHg 87%
    08:00 -2°C° 0 mm 1 mps 716 mmHg 83%
    09:00 -1°C° 0 mm 1 mps 716 mmHg 78%
    10:00 0°C° 0 mm 1 mps 716 mmHg 74%
    11:00 +1°C° 0.1 mm 1 mps 716 mmHg 73%
    12:00 +1°C° 0.1 mm 1 mps 716 mmHg 72%
    13:00 +2°C° 0.1 mm 1 mps 716 mmHg 71%
    14:00 +1°C° 0.1 mm 1 mps 715 mmHg 75%
    15:00 +1°C° 0.1 mm 1 mps 715 mmHg 79%
    16:00 0°C° 0.1 mm 1 mps 715 mmHg 83%
    17:00 0°C° 0.1 mm 1 mps 714 mmHg 86%
    18:00 -1°C° 0.1 mm 1 mps 714 mmHg 88%
    19:00 -1°C° 0.1 mm 1 mps 714 mmHg 90%
    20:00 -1°C° 0 mm 1 mps 714 mmHg 90%
    21:00 -2°C° 0 mm 1 mps 714 mmHg 90%
    22:00 -2°C° 0 mm 1 mps 713 mmHg 90%
    23:00 -2°C° 0 mm 1 mps 713 mmHg 90%

    Tomorrow, 21 January, Sunday

    Time Temperature Precipitation Wind Pressure Humidity
    00:00 -2°C° 0 mm 1 mps 713 mmHg 89%
    01:00 -2°C° 0 mm 1 mps 713 mmHg 89%
    02:00 -2°C° 0.1 mm 1 mps 713 mmHg 89%
    03:00 -2°C° 0.1 mm 1 mps 713 mmHg 89%
    04:00 -1°C° 0.1 mm 1 mps 712 mmHg 89%
    05:00 -3°C° 0.1 mm 2 mps 712 mmHg 89%
    06:00 -3°C° 0.1 mm 2 mps 712 mmHg 89%
    07:00 -3°C° 0.1 mm 2 mps 712 mmHg 90%
    08:00 -3°C° 0.1 mm 2 mps 712 mmHg 87%
    09:00 -2°C° 0.1 mm 2 mps 712 mmHg 85%
    10:00 -2°C° 0.1 mm 2 mps 713 mmHg 82%
    11:00 -1°C° 0.2 mm 2 mps 713 mmHg 82%
    12:00 -1°C° 0.2 mm 2 mps 713 mmHg 82%
    13:00 +1°C° 0.2 mm 1 mps 713 mmHg 81%
    14:00 +1°C° 0.2 mm 1 mps 713 mmHg 85%
    15:00 0°C° 0.2 mm 1 mps 714 mmHg 88%
    16:00 0°C° 0.2 mm 1 mps 714 mmHg 91%
    17:00 0°C° 0.3 mm 1 mps 714 mmHg 93%
    18:00 -3°C° 0.3 mm 2 mps 715 mmHg 94%
    19:00 -3°C° 0.3 mm 2 mps 716 mmHg 96%
    20:00 -3°C° 0.5 mm 2 mps 716 mmHg 96%
    21:00 -3°C° 0.5 mm 2 mps 717 mmHg 95%
    22:00 -4°C° 0.5 mm 3 mps 717 mmHg 95%
    23:00 -4°C° 0.4 mm 3 mps 717 mmHg 95%

    Day after tomorrow, 22 January, Monday

    Time Temperature Precipitation Wind Pressure Humidity
    00:00 -4°C° 0.4 mm 3 mps 718 mmHg 94%
    01:00 -4°C° 0.4 mm 3 mps 718 mmHg 94%
    02:00 -5°C° 0.2 mm 3 mps 718 mmHg 94%
    03:00 -5°C° 0.2 mm 3 mps 718 mmHg 94%
    04:00 -5°C° 0.2 mm 3 mps 718 mmHg 94%
    05:00 -4°C° 0.1 mm 2 mps 718 mmHg 94%
    06:00 -5°C° 0.1 mm 2 mps 718 mmHg 94%
    07:00 -5°C° 0.1 mm 2 mps 719 mmHg 94%
    08:00 -4°C° 0 mm 2 mps 719 mmHg 92%
    09:00 -4°C° 0 mm 2 mps 719 mmHg 90%
    10:00 -4°C° 0 mm 2 mps 720 mmHg 88%
    11:00 -3°C° 0 mm 2 mps 720 mmHg 86%
    12:00 -3°C° 0 mm 2 mps 719 mmHg 84%
    13:00 -3°C° 0 mm 2 mps 719 mmHg 82%
    14:00 -3°C° 0 mm 2 mps 720 mmHg 84%
    15:00 -2°C° 0 mm 1 mps 720 mmHg 86%
    16:00 -2°C° 0 mm 1 mps 720 mmHg 88%
    17:00 -3°C° 0 mm 1 mps 720 mmHg 90%
    18:00 -3°C° 0 mm 1 mps 721 mmHg 92%
    19:00 -4°C° 0 mm 1 mps 721 mmHg 94%
    20:00 -4°C° 0 mm 1 mps 721 mmHg 93%
    21:00 -6°C° 0 mm 1 mps 721 mmHg 93%
    22:00 -6°C° 0 mm 1 mps 722 mmHg 93%
    23:00 -6°C° 0 mm 1 mps 722 mmHg 92%

    23 January, Tuesday

    Time Temperature Precipitation Wind Pressure Humidity
    00:00 -6°C° 0 mm 1 mps 722 mmHg 91%
    01:00 -6°C° 0 mm 1 mps 722 mmHg 90%
    02:00 -6°C° 0 mm 1 mps 722 mmHg 90%
    03:00 -7°C° 0 mm 1 mps 722 mmHg 89%
    04:00 -7°C° 0 mm 1 mps 723 mmHg 89%
    05:00 -7°C° 0 mm 1 mps 723 mmHg 88%
    06:00 -7°C° 0 mm 1 mps 724 mmHg 88%
    07:00 -7°C° 0 mm 1 mps 724 mmHg 87%
    08:00 -4°C° 0 mm 1 mps 725 mmHg 84%
    09:00 -3°C° 0 mm 1 mps 725 mmHg 80%
    10:00 -2°C° 0 mm 1 mps 726 mmHg 77%
    11:00 -1°C° 0 mm 1 mps 726 mmHg 75%
    12:00 0°C° 0 mm 1 mps 726 mmHg 73%
    13:00 +1°C° 0 mm 1 mps 727 mmHg 71%
    14:00 0°C° 0 mm 1 mps 727 mmHg 76%
    15:00 -1°C° 0 mm 1 mps 727 mmHg 81%
    16:00 -2°C° 0 mm 1 mps 728 mmHg 86%
    17:00 -3°C° 0 mm 1 mps 728 mmHg 86%
    18:00 -3°C° 0 mm 1 mps 728 mmHg 87%
    19:00 -4°C° 0 mm 1 mps 729 mmHg 88%
    20:00 -4°C° 0 mm 1 mps 729 mmHg 88%
    21:00 -4°C° 0 mm 1 mps 729 mmHg 87%
    22:00 -4°C° 0 mm 1 mps 730 mmHg 86%
    23:00 -4°C° 0 mm 1 mps 730 mmHg 86%

    24 January, Wednesday

    Time Temperature Precipitation Wind Pressure Humidity
    00:00 -4°C° 0 mm 1 mps 730 mmHg 86%
    01:00 -4°C° 0 mm 1 mps 730 mmHg 85%
    02:00 -4°C° 0 mm 1 mps 730 mmHg 85%
    03:00 -4°C° 0 mm 1 mps 730 mmHg 86%
    04:00 -4°C° 0 mm 1 mps 730 mmHg 86%
    05:00 -4°C° 0 mm 1 mps 730 mmHg 86%
    06:00 -6°C° 0 mm 2 mps 730 mmHg 86%
    07:00 -6°C° 0 mm 2 mps 730 mmHg 87%
    08:00 -5°C° 0 mm 2 mps 731 mmHg 85%
    09:00 -4°C° 0 mm 2 mps 731 mmHg 83%
    10:00 -2°C° 0 mm 2 mps 731 mmHg 81%
    11:00 -1°C° 0 mm 2 mps 731 mmHg 82%
    12:00 -1°C° 0 mm 2 mps 731 mmHg 82%
    13:00 +1°C° 0 mm 2 mps 731 mmHg 82%
    14:00 +1°C° 0 mm 2 mps 731 mmHg 84%
    15:00 -1°C° 0 mm 2 mps 731 mmHg 86%
    16:00 -2°C° 0 mm 2 mps 730 mmHg 88%
    17:00 -2°C° 0 mm 2 mps 730 mmHg 89%
    18:00 -3°C° 0 mm 2 mps 730 mmHg 89%
    19:00 -4°C° 0 mm 2 mps 730 mmHg 90%
    20:00 -4°C° 0 mm 2 mps 730 mmHg 90%
    21:00 -4°C° 0 mm 2 mps 730 mmHg 90%
    22:00 -4°C° 0 mm 2 mps 730 mmHg 90%
    23:00 -4°C° 0 mm 2 mps 730 mmHg 90%

    25 January, Thursday

    Time Temperature Precipitation Wind Pressure Humidity
    00:00 -4°C° 0 mm 2 mps 730 mmHg 89%
    01:00 -4°C° 0 mm 2 mps 730 mmHg 89%
    02:00 -4°C° 0 mm 2 mps 729 mmHg 89%
    03:00 -4°C° 0 mm 2 mps 729 mmHg 89%
    04:00 -4°C° 0 mm 2 mps 729 mmHg 89%
    05:00 -4°C° 0 mm 2 mps 729 mmHg 89%
    06:00 -4°C° 0 mm 2 mps 729 mmHg 89%
    07:00 -4°C° 0 mm 2 mps 728 mmHg 88%
    08:00 -3°C° 0 mm 2 mps 728 mmHg 86%
    09:00 -2°C° 0 mm 2 mps 728 mmHg 84%
    10:00 +1°C° 0 mm 2 mps 728 mmHg 82%
    11:00 +1°C° 0 mm 2 mps 728 mmHg 82%
    12:00 +2°C° 0 mm 2 mps 728 mmHg 82%
    13:00 +3°C° 0 mm 2 mps 727 mmHg 83%
    14:00 +2°C° 0 mm 2 mps 727 mmHg 84%
    15:00 +2°C° 0 mm 2 mps 727 mmHg 85%
    16:00 +1°C° 0 mm 2 mps 726 mmHg 86%
    17:00 -1°C° 0 mm 2 mps 726 mmHg 86%
    18:00 -2°C° 0 mm 2 mps 726 mmHg 85%
    19:00 -2°C° 0 mm 2 mps 726 mmHg 85%
    20:00 -2°C° 0 mm 2 mps 726 mmHg 84%
    21:00 -2°C° 0 mm 2 mps 726 mmHg 83%
    22:00 -2°C° 0 mm 2 mps 725 mmHg 82%
    23:00 -3°C° 0 mm 2 mps 725 mmHg 81%
    Show more